Home   Weather   Martigny   Past weeks

Flag for Switzerland Past Weather in Martigny, Valais, Switzerland — Yesterday and Last 2 Weeks

Now
66 °F

Mild.


Feels Like: 66 °F
Forecast: 44 / 70 °F
Wind: 20 mph from West

Location: Sion

Current Time: Apr 23, 2017 at 4:03:55 pm

Latest Report: Apr 23, 2017 at 3:00 pm


Visibility: N/A

Pressure: 29.97 "Hg

Humidity: 30%

Dew Point: 34 °F

Location of MartignyLocation

Past Weather in Martigny — Graph

°F

Martigny Temperature Yesterday

Maximum temperature yesterday: 71 °F (at 5:00 pm)
Minimum temperature yesterday: 36 °F (at 7:00 am)
Average temperature yesterday: 54 °F

High & Low Weather Summary for the Past Weeks

 TemperatureHumidityPressure
High77 °F (Apr 9, 4:00 pm)86% (Apr 19, 5:00 am)30.51 "Hg (Apr 19, 5:00 am)
Low30 °F (Apr 20, 7:00 am)18% (Apr 13, 4:00 pm)29.82 "Hg (Apr 14, 5:00 pm)
Average54 °F48%30.14 "Hg
* Reported Apr 8 1:00 pm — Apr 23 1:00 pm, Martigny, Weather by CustomWeather, © 2017

Note: Actual official high and low records may vary slightly from our data, if they occured in-between our weather recording intervals... More about our weather records

Advertising

Martigny Weather History for the Previous 24 Hours

Scroll right to see more
 ConditionsComfort  
Time TempWeatherWind HumidityBarometerVisibility
1:00 pm
Sun, Apr 23
66 °FMild.16 mph35%30.02 "HgN/A
12:00 pm60 °FRefreshingly cool.5 mph46%30.07 "HgN/A
11:00 am56 °FSunny.7 mph49%30.11 "Hg28 mi
10:00 am53 °FCool.5 mph55%30.14 "HgN/A
9:00 am50 °FCool.3 mph57%30.16 "HgN/A
8:00 am46 °FSunny.No wind67%30.17 "Hg25 mi
7:00 am41 °FQuite cool.2 mph81%30.19 "HgN/A
6:00 am43 °FQuite cool.2 mph76%30.16 "HgN/A
5:00 am44 °FClear.3 mph65%30.16 "Hg19 mi
4:00 am47 °FCool.2 mph62%30.14 "HgN/A
3:00 am50 °FCool.6 mph55%30.13 "HgN/A
2:00 am53 °FClear.10 mph51%30.13 "Hg16 mi
1:00 am54 °FCool.12 mph49%30.12 "HgN/A
12:00 am54 °FCool.14 mph48%30.11 "HgN/A
11:00 pm
Sat, Apr 22
56 °FRefreshingly cool.13 mph45%30.09 "HgN/A
10:00 pm59 °FRefreshingly cool.10 mph38%30.06 "HgN/A
9:00 pm62 °FMild.7 mph27%30.04 "HgN/A
8:00 pm64 °FSunny.12 mph25%30.02 "Hg19 mi
7:00 pm68 °FMild.12 mph22%30.01 "HgN/A
6:00 pm69 °FMild.13 mph21%30.01 "HgN/A
5:00 pm71 °FSunny.16 mph19%30.01 "Hg28 mi
4:00 pm71 °FMild.13 mph19%30.03 "HgN/A
Weather by CustomWeather, © 2017

See weather overviewHow to use our weather pages